Temperature
22 24 25 25 26 25 24 22 22 22 23 23 23 23 23 24 24 23 23 23 23 23 23 22 21 21 21 20 20 20 19 19 19 18 18 18 17 17 17 17 17 16 16 16
22 24 25 25 25 25 25 24 23 24 23 23 24 24 24 23 23 23 23 23 23 22 22 22 21 21 21 20 20 20 19 19 18 18 18 17 17 17 17 16 16 16 16 16
20 22 24 23 24 25 25 25 24 23 23 23 23 23 23 23 23 23 23 23 22 22 22 22 21 21 21 20 20 19 19 18 18 18 17 17 17 17 16 16 16 16 15 15
18 21 22 22 23 25 25 25 24 24 23 23 23 24 24 25 24 23 23 23 23 22 22 21 21 21 20 20 19 19 18 18 18 18 17 17 17 16 16 16 16 15 15 15
17 19 21 22 24 24 24 23 24 23 23 23 24 23 23 24 24 24 24 24 23 22 22 21 21 20 20 19 19 18 18 18 18 17 17 17 17 16 16 16 15 15 15 15
17 19 20 21 24 25 24 22 23 23 22 22 22 20 21 23 23 23 23 23 22 22 21 21 20 20 19 19 19 18 18 18 17 17 17 16 16 16 16 16 15 15 14 14
17 19 19 21 23 24 22 21 22 23 23 23 21 22 22 23 23 23 22 22 21 21 21 20 20 19 19 19 18 18 18 17 17 17 16 16 16 15 15 15 15 14 14 14
16 18 19 21 22 21 20 22 22 23 23 23 23 22 22 22 22 22 21 21 21 20 20 20 20 19 19 18 18 18 17 17 17 16 16 16 16 15 15 15 14 14 14 13
16 17 18 20 21 22 22 22 22 22 23 23 22 21 21 21 21 21 21 21 20 20 19 19 19 19 19 18 18 17 17 17 16 16 16 15 15 15 14 14 14 14 13 13
16 17 18 20 21 21 22 22 22 22 22 22 21 21 20 20 20 20 20 20 19 19 19 18 18 18 18 18 17 17 17 16 16 15 15 15 14 14 14 14 14 13 13 13
16 16 17 19 20 20 21 21 21 21 22 22 21 20 20 19 19 19 19 19 18 18 18 18 17 17 17 17 17 16 16 15 15 15 15 14 14 14 14 14 13 13 13 13
15 16 16 17 19 20 20 20 20 21 20 21 21 20 19 19 19 18 18 18 18 18 18 17 17 16 16 16 16 16 15 15 15 14 14 14 14 13 13 13 13 13 12 12
16 17 17 18 18 19 19 19 20 20 20 20 20 19 19 18 18 18 18 17 17 17 17 17 16 16 16 16 16 16 15 15 15 14 14 14 13 13 13 13 12 12 12 12
17 17 17 17 17 18 19 19 19 19 19 19 18 18 18 18 17 17 17 17 17 17 16 16 16 16 16 15 15 15 15 15 14 14 14 13 13 13 13 13 12 12 11 11
17 17 16 17 18 18 18 18 18 18 18 18 18 17 17 17 17 17 17 16 16 16 16 16 15 15 15 15 15 15 14 14 14 14 13 13 13 13 12 12 12 12 11 11
16 16 17 16 17 17 17 18 18 17 17 17 17 17 17 17 16 16 16 16 16 16 15 15 15 15 15 15 14 14 14 14 14 13 13 13 13 12 12 12 12 11 11 11
16 16 16 16 16 16 17 18 17 17 17 16 16 16 16 16 16 15 15 15 15 15 15 15 14 14 14 14 14 14 14 13 13 13 13 13 12 12 12 12 11 11 11 11
16 16 16 16 16 16 16 17 17 17 16 16 16 16 15 15 15 15 15 14 14 14 14 14 14 14 14 14 14 13 13 13 13 13 12 12 12 12 12 11 11 11 11 10
16 16 16 16 16 16 16 16 16 16 16 16 16 16 15 15 14 14 14 14 14 14 14 14 14 14 13 13 13 13 13 13 12 12 12 12 12 12 11 11 11 11 10 10
16 16 16 16 16 16 16 16 16 16 16 15 15 15 15 14 14 14 14 14 14 14 14 13 13 13 13 13 13 13 13 12 12 12 12 12 12 11 11 11 11 10 10 10
15 15 16 16 15 16 16 16 16 15 15 15 15 15 14 14 14 13 13 13 13 13 13 13 13 13 13 13 12 12 12 12 12 12 11 11 11 11 11 11 10 10 10 10
15 15 15 15 15 15 15 15 15 15 15 15 14 14 14 13 13 13 13 13 13 13 13 13 13 13 12 12 12 12 12 12 11 11 11 11 11 11 11 10 10 10 10 9
14 14 14 14 15 15 14 14 14 14 14 14 14 14 14 13 13 13 13 13 13 13 12 12 12 12 12 12 12 12 12 11 11 11 11 11 11 10 10 10 10 10 10 9
13 13 14 14 14 14 14 14 14 14 14 14 14 13 13 13 13 13 13 13 13 12 12 12 12 12 12 12 12 11 11 11 11 11 11 10 10 10 10 10 10 10 9 9
13 13 13 13 13 13 13 13 13 13 13 13 13 13 13 13 13 13 12 12 12 12 12 12 12 12 11 11 11 11 11 11 11 10 10 10 10 10 10 10 10 9 9 9
12 12 12 13 13 13 13 13 13 13 13 13 12 12 12 12 12 12 12 12 12 12 12 11 11 11 11 11 11 11 10 10 10 10 10 10 10 10 10 9 9 9 9 9
12 12 12 12 12 12 12 12 12 12 12 12 12 12 12 12 12 12 12 12 11 11 11 11 11 11 11 10 10 10 10 10 10 10 10 10 10 10 9 9 9 9 9 8
Wind_Speed
6 5 3 4 6 5 6 9 9 9 9 11 11 12 12 11 11 10 10 10 11 11 10 10 9 9 9 9 9 9 9 8 7 6 5 6 6 6 6 6 7 6 6 6
2 2 3 5 6 7 7 7 7 6 7 7 6 7 10 12 14 13 12 11 11 11 11 12 12 10 10 9 9 9 9 8 7 7 7 7 6 6 6 7 6 7 7 6
2 4 3 6 7 6 6 6 8 9 9 6 6 9 11 11 12 14 14 13 13 12 11 10 11 11 11 10 9 9 9 9 8 8 8 7 7 7 7 6 7 7 6 6
1 2 5 10 6 5 5 5 7 7 8 11 11 9 8 10 12 12 13 13 12 11 10 10 9 10 10 10 9 9 9 9 8 8 8 7 7 7 6 6 6 6 6 6
3 2 5 8 4 3 4 4 4 8 8 7 7 6 2 4 8 11 12 13 12 11 11 11 11 11 11 10 9 9 9 9 9 9 9 8 7 7 6 6 6 6 5 6
4 4 6 8 5 2 6 3 4 8 10 9 8 5 4 4 7 9 10 10 10 11 11 12 11 12 12 11 9 8 9 9 8 8 9 8 7 7 6 6 6 6 5 5
4 4 7 7 6 2 5 7 5 6 9 8 6 7 7 7 8 10 11 11 10 11 11 11 12 12 12 10 9 8 8 9 8 8 8 8 7 6 7 6 6 6 6 5
4 4 8 6 4 2 7 4 3 4 6 6 6 7 8 10 10 12 12 11 11 10 9 9 11 12 12 10 8 9 9 9 9 8 7 8 8 6 6 7 7 6 6 5
7 7 6 4 3 3 2 3 1 3 5 9 9 8 9 9 10 10 11 11 10 11 10 8 8 11 13 10 10 10 9 9 8 8 7 6 7 7 6 5 5 5 5 4
1 4 3 3 2 4 3 3 2 4 7 9 10 10 10 9 10 10 9 10 10 11 11 9 8 9 11 11 10 10 10 9 8 8 7 6 5 5 5 5 5 5 5 4
1 3 4 4 2 3 4 5 5 5 6 8 11 10 9 9 9 10 9 8 9 10 10 9 9 9 10 11 11 11 10 9 8 7 7 6 5 4 4 3 4 6 5 5
4 5 3 4 3 1 3 3 3 6 6 6 9 11 9 9 8 9 10 10 10 9 10 10 10 10 9 10 11 11 10 9 7 7 6 6 6 6 9 6 5 6 7 6
4 3 3 4 2 2 3 2 3 5 8 8 7 8 9 9 8 9 10 10 10 9 10 10 10 10 8 8 10 10 10 9 7 7 7 6 6 7 6 6 9 8 7 7
2 1 1 2 2 2 3 4 5 7 6 8 7 7 8 9 10 10 10 10 10 10 9 9 10 8 7 8 9 9 9 9 8 7 7 6 6 5 6 6 5 3 4 5
3 0 1 2 1 1 3 5 7 7 8 8 8 8 9 10 10 9 9 10 11 11 10 9 9 7 6 8 9 9 8 7 6 6 6 6 6 5 5 5 5 4 2 2
2 1 2 2 2 1 3 6 7 7 7 8 8 7 8 9 9 9 9 10 11 10 9 9 8 7 7 8 9 7 6 9 8 7 6 6 6 6 5 5 5 4 4 3
2 2 2 2 1 2 3 5 7 8 8 8 8 9 9 10 9 8 7 8 9 8 7 7 7 6 6 8 8 7 6 7 10 7 6 6 6 6 6 6 5 4 3 3
4 5 5 4 3 4 4 5 6 9 10 10 10 11 10 10 10 8 7 8 8 7 6 6 6 6 6 6 7 7 7 6 6 6 6 6 6 6 6 6 6 5 3 3
2 3 4 3 3 4 6 7 8 9 10 10 10 10 9 8 8 8 8 8 8 7 5 5 8 6 5 6 8 7 7 7 6 6 5 7 7 5 6 6 6 5 5 4
2 3 5 4 4 4 6 7 9 9 9 9 9 9 9 8 7 8 8 6 5 4 6 7 7 6 6 6 8 6 7 7 6 6 6 6 6 6 6 6 6 5 5 5
3 5 6 5 4 4 5 7 9 9 8 8 9 9 9 8 7 7 7 5 3 4 7 8 6 5 5 7 8 6 6 6 5 5 6 6 6 5 5 5 5 5 5 4
4 4 5 4 4 4 4 5 7 8 8 7 7 8 9 8 7 6 4 4 5 7 6 5 5 6 8 8 6 6 6 6 5 5 5 5 6 5 5 5 5 5 5 5
4 4 4 4 5 4 4 4 5 7 7 8 8 8 8 7 7 7 4 3 5 8 6 5 7 10 10 7 5 5 6 6 5 5 5 5 5 6 6 6 5 5 5 5
3 3 3 3 4 5 4 3 4 5 6 6 6 7 7 6 4 3 4 7 9 9 6 7 10 11 9 5 5 5 5 5 5 5 5 5 5 5 5 5 5 5 5 5
3 3 3 3 3 3 3 4 4 5 5 5 5 5 5 5 5 5 5 7 10 10 6 7 10 9 6 5 5 5 4 4 5 5 4 5 5 5 5 5 5 5 5 4
2 2 2 2 2 2 3 3 3 3 4 5 4 4 4 4 5 6 5 7 8 8 6 5 6 6 5 5 5 5 4 4 5 5 5 5 5 6 5 5 6 5 4 4
1 1 2 2 1 2 3 3 3 4 5 6 5 4 5 5 5 6 7 6 6 6 5 5 5 5 5 4 4 4 4 4 4 4 5 5 5 5 5 6 5 5 5 5
Wind_Direction
213 233 252 250 248 221 184 179 181 214 207 211 193 173 170 160 147 144 147 149 155 155 150 144 143 143 143 144 143 143 139 136 137 131 123 116 106 99 95 90 89 86 85 79
297 304 316 295 275 238 215 190 188 189 232 221 196 160 157 160 156 157 160 157 155 156 153 151 152 149 144 145 147 142 139 138 133 126 120 115 110 103 96 90 86 84 84 82
272 319 5 280 247 224 222 208 180 200 220 181 159 165 165 161 158 162 164 162 160 160 157 155 152 148 146 144 140 137 136 133 130 128 123 120 117 105 100 96 90 85 85 85
131 52 226 245 248 199 205 237 195 184 182 172 176 174 168 159 157 159 163 162 160 160 153 147 140 138 136 134 135 137 135 132 131 128 123 118 113 109 103 99 98 93 85 85
130 183 270 285 273 180 174 270 216 163 155 148 135 98 78 163 159 164 165 163 162 159 152 142 140 140 135 133 136 135 137 138 137 133 129 127 124 120 113 107 97 90 87 88
138 168 225 248 275 204 123 263 255 150 147 147 126 137 214 191 148 142 141 145 148 144 139 139 145 142 136 136 138 143 143 139 136 134 135 134 132 125 115 112 109 101 89 83
164 205 255 260 290 67 144 223 239 166 154 152 164 181 175 139 133 132 132 133 135 135 139 143 143 138 136 138 148 146 135 129 127 126 129 129 124 123 123 118 110 102 91 74
162 197 247 298 355 169 216 221 188 164 147 137 134 129 128 125 130 129 130 132 132 128 126 130 137 135 133 139 140 132 130 126 124 123 124 125 119 116 117 120 114 106 98 82
191 214 240 281 247 243 167 138 138 137 134 130 128 132 130 131 131 131 133 134 131 129 124 122 131 137 136 138 133 128 128 124 122 112 104 112 117 118 113 113 119 118 114 106
211 260 279 313 355 22 63 93 98 129 134 132 129 132 128 133 133 135 133 131 130 129 130 131 129 129 136 135 132 133 132 127 122 114 106 98 101 113 122 128 132 133 130 127
292 290 351 347 14 30 52 59 70 87 115 132 131 133 131 135 138 137 132 129 131 135 136 138 132 130 138 138 137 133 130 127 122 117 117 105 89 79 112 131 158 154 155 153
228 237 219 249 265 94 89 73 85 106 112 124 128 133 129 134 137 135 134 132 132 133 135 138 135 135 140 140 143 140 137 135 134 131 126 121 112 83 54 71 98 120 137 141
228 251 241 254 252 139 135 131 95 103 124 125 123 130 129 130 131 130 131 133 135 136 137 137 135 136 140 142 142 143 143 143 140 141 141 138 135 129 114 62 62 80 106 121
248 40 330 290 258 198 131 110 98 93 102 115 121 124 126 124 126 128 133 136 132 129 133 136 137 142 148 146 142 141 142 146 146 148 149 147 148 147 144 140 124 78 58 98
310 78 229 291 314 90 117 116 110 110 110 108 116 125 130 130 130 129 126 126 127 128 131 133 135 140 146 140 140 142 141 144 147 148 148 146 144 140 137 134 132 129 108 74
307 12 94 64 34 117 129 121 123 128 124 115 114 117 120 123 123 121 121 127 131 136 138 137 140 143 138 139 140 139 143 147 146 146 146 145 145 144 144 142 143 146 152 156
165 144 128 147 169 165 140 131 133 137 131 128 128 123 119 116 115 117 121 124 129 133 136 138 143 142 138 141 143 145 146 149 144 140 144 149 151 154 153 151 154 158 168 166
181 174 160 160 175 156 138 128 134 140 137 135 131 128 128 133 135 137 134 126 121 119 122 131 136 135 134 140 144 145 144 143 144 145 146 147 149 153 154 152 153 152 149 143
128 130 121 126 138 146 143 137 132 125 128 132 133 134 135 138 140 136 132 130 132 133 140 132 130 130 133 140 139 137 140 140 139 141 144 144 142 143 149 152 154 157 154 146
86 106 105 101 96 109 123 126 127 125 127 128 127 124 125 130 135 134 133 133 143 150 146 139 135 130 131 135 133 135 140 144 146 147 147 148 148 148 151 155 159 160 157 155
107 94 87 88 91 96 109 119 122 122 127 132 137 138 137 135 135 136 138 137 140 138 139 138 137 138 137 137 132 135 137 142 145 147 149 151 150 149 152 154 156 156 154 156
91 93 96 99 97 91 93 106 118 122 123 127 131 131 130 131 129 126 130 148 154 144 140 139 137 137 137 131 130 136 140 144 142 142 145 147 148 149 150 150 151 152 151 152
79 86 94 98 101 97 90 100 118 131 136 141 142 142 143 146 148 148 153 160 148 143 140 142 141 136 132 127 131 135 140 143 143 146 150 151 152 152 151 150 151 150 150 154
88 91 91 92 96 99 99 99 110 125 134 138 145 149 148 145 144 151 149 147 147 142 138 140 140 141 137 130 131 135 138 142 142 146 149 148 148 149 149 148 148 150 152 157
92 93 94 99 108 126 138 125 115 120 127 130 131 134 140 145 150 153 144 146 148 142 137 144 146 147 143 136 138 141 142 145 145 147 149 148 149 149 149 148 150 152 153 158
96 112 123 129 141 147 142 135 139 148 142 136 136 136 129 127 132 135 135 145 147 144 141 144 151 153 152 149 146 148 150 153 154 154 154 152 152 152 152 154 152 153 153 154
89 108 120 113 104 132 136 137 145 154 155 149 146 149 144 141 140 139 137 140 142 141 138 138 140 147 149 146 144 143 144 146 146 146 147 149 150 151 155 154 153 151 147 143
Height
1492 1487 1485 1486 1486 1486 1494 1502 1511 1507 1503 1495 1491 1492 1493 1495 1498 1502 1505 1507 1509 1512 1515 1518 1521 1524 1526 1528 1531 1532 1534 1535 1536 1538 1539 1540 1540 1541 1541 1541 1541 1541 1541 1541
1491 1484 1483 1485 1482 1482 1485 1488 1493 1494 1496 1486 1487 1488 1491 1494 1496 1500 1503 1505 1508 1511 1513 1516 1519 1522 1525 1528 1530 1532 1533 1534 1536 1538 1539 1540 1540 1541 1541 1541 1542 1542 1542 1542
1502 1490 1487 1494 1482 1480 1481 1479 1484 1492 1488 1483 1486 1487 1488 1492 1495 1497 1500 1503 1506 1509 1512 1515 1517 1520 1523 1526 1529 1531 1533 1534 1536 1537 1539 1540 1541 1541 1542 1542 1543 1543 1543 1543
1504 1499 1508 1491 1472 1471 1474 1474 1474 1476 1477 1479 1481 1483 1485 1488 1491 1495 1498 1501 1504 1508 1511 1514 1517 1520 1523 1526 1528 1531 1532 1534 1536 1537 1539 1540 1541 1542 1542 1543 1543 1544 1544 1544
1508 1508 1499 1482 1470 1469 1475 1478 1470 1472 1474 1477 1480 1484 1487 1489 1490 1492 1494 1497 1501 1505 1509 1512 1515 1519 1522 1524 1527 1529 1532 1534 1536 1538 1539 1540 1541 1542 1543 1544 1544 1545 1545 1546
1504 1506 1506 1485 1467 1464 1469 1481 1470 1469 1472 1476 1478 1488 1489 1488 1489 1491 1494 1497 1500 1504 1507 1510 1514 1518 1521 1523 1526 1529 1531 1534 1536 1538 1539 1540 1541 1542 1543 1544 1545 1546 1546 1547
1501 1501 1492 1472 1465 1464 1483 1482 1469 1468 1469 1473 1476 1479 1482 1484 1487 1490 1493 1497 1500 1503 1506 1509 1513 1516 1519 1522 1526 1528 1531 1533 1535 1537 1539 1540 1542 1543 1543 1545 1545 1546 1547 1547
1498 1501 1495 1468 1466 1470 1472 1465 1466 1466 1467 1470 1473 1476 1479 1482 1486 1488 1492 1496 1499 1502 1505 1509 1512 1516 1519 1522 1525 1528 1531 1533 1535 1537 1539 1540 1541 1543 1544 1545 1546 1547 1547 1547
1486 1486 1473 1469 1467 1465 1464 1465 1465 1466 1467 1468 1471 1474 1478 1481 1485 1488 1492 1495 1499 1502 1505 1509 1512 1515 1518 1521 1525 1528 1531 1532 1535 1536 1538 1540 1541 1542 1543 1545 1546 1546 1547 1547
1479 1474 1470 1468 1466 1465 1464 1464 1465 1466 1466 1468 1470 1474 1477 1480 1484 1488 1491 1494 1498 1501 1504 1508 1511 1515 1518 1520 1524 1528 1530 1531 1533 1535 1538 1540 1541 1542 1543 1544 1545 1546 1547 1547
1476 1473 1470 1468 1467 1467 1466 1466 1466 1467 1468 1468 1469 1473 1476 1479 1483 1487 1491 1494 1498 1501 1504 1508 1511 1513 1517 1519 1523 1526 1528 1530 1532 1535 1537 1539 1541 1542 1543 1544 1545 1546 1547 1547
1478 1473 1473 1470 1468 1467 1467 1467 1467 1467 1468 1470 1470 1472 1476 1480 1483 1487 1491 1494 1498 1501 1504 1508 1511 1513 1517 1519 1522 1525 1527 1529 1532 1534 1536 1538 1540 1542 1543 1545 1545 1546 1547 1548
1471 1470 1470 1469 1468 1467 1468 1467 1467 1467 1467 1469 1472 1474 1477 1480 1484 1487 1491 1494 1498 1501 1504 1507 1510 1513 1516 1518 1521 1523 1526 1528 1530 1533 1536 1538 1539 1541 1543 1545 1545 1546 1547 1548
1469 1468 1468 1468 1468 1468 1467 1467 1467 1467 1469 1470 1473 1476 1478 1480 1484 1487 1490 1493 1497 1500 1503 1506 1509 1512 1514 1517 1520 1523 1525 1528 1530 1532 1534 1537 1539 1541 1542 1543 1544 1546 1547 1548
1467 1466 1467 1467 1466 1465 1466 1467 1467 1468 1470 1473 1475 1477 1479 1481 1484 1487 1490 1492 1496 1499 1502 1505 1508 1511 1514 1516 1519 1522 1524 1527 1529 1532 1534 1536 1538 1540 1542 1543 1544 1545 1546 1548
1467 1467 1466 1466 1465 1465 1465 1465 1465 1468 1471 1474 1477 1479 1481 1483 1486 1488 1491 1493 1496 1499 1501 1504 1507 1510 1513 1516 1518 1521 1523 1526 1528 1531 1533 1535 1537 1539 1541 1542 1543 1544 1545 1547
1466 1466 1465 1464 1465 1465 1464 1464 1466 1469 1472 1475 1477 1480 1482 1485 1487 1490 1492 1495 1497 1500 1502 1504 1507 1510 1512 1515 1517 1519 1522 1525 1527 1530 1532 1533 1535 1538 1540 1541 1543 1544 1545 1547
1464 1464 1464 1464 1465 1464 1464 1465 1467 1469 1471 1475 1478 1480 1483 1485 1487 1490 1494 1496 1498 1500 1502 1505 1507 1510 1512 1514 1516 1519 1521 1524 1526 1529 1531 1533 1534 1537 1539 1540 1542 1543 1545 1546
1464 1465 1465 1465 1466 1465 1465 1466 1467 1468 1471 1476 1478 1481 1483 1486 1488 1491 1494 1496 1498 1500 1502 1505 1507 1509 1512 1513 1516 1518 1521 1523 1525 1528 1530 1532 1534 1535 1537 1539 1541 1543 1544 1545
1463 1464 1464 1465 1466 1466 1467 1468 1469 1471 1474 1477 1479 1481 1483 1487 1489 1492 1494 1497 1499 1500 1502 1504 1506 1508 1511 1513 1515 1518 1520 1522 1524 1527 1529 1530 1532 1534 1536 1538 1540 1542 1543 1544
1463 1464 1464 1465 1467 1468 1469 1469 1470 1472 1475 1478 1480 1481 1484 1486 1489 1491 1494 1496 1499 1501 1503 1504 1506 1508 1510 1512 1515 1517 1519 1522 1524 1525 1527 1529 1532 1534 1535 1537 1539 1541 1542 1544
1463 1464 1465 1467 1468 1469 1470 1471 1472 1474 1475 1478 1480 1482 1484 1486 1489 1492 1494 1496 1499 1501 1502 1504 1506 1508 1510 1512 1514 1516 1518 1521 1523 1525 1527 1529 1531 1533 1534 1536 1538 1540 1541 1543
1465 1465 1466 1468 1468 1469 1470 1472 1473 1475 1476 1478 1480 1482 1484 1486 1489 1491 1494 1497 1499 1500 1502 1504 1506 1508 1510 1512 1514 1516 1518 1521 1522 1524 1526 1528 1530 1532 1534 1536 1537 1539 1541 1542
1465 1466 1467 1468 1469 1470 1471 1473 1474 1476 1478 1479 1481 1483 1485 1486 1489 1491 1494 1496 1498 1500 1502 1504 1506 1508 1510 1512 1514 1516 1518 1520 1522 1524 1526 1528 1530 1532 1534 1535 1537 1539 1540 1541
1465 1466 1467 1468 1469 1470 1471 1472 1474 1476 1477 1479 1480 1483 1485 1486 1488 1491 1493 1495 1497 1499 1501 1504 1506 1508 1510 1512 1514 1516 1518 1520 1522 1524 1526 1528 1530 1532 1533 1535 1536 1538 1539 1540
1464 1465 1466 1467 1468 1469 1470 1471 1473 1474 1476 1477 1480 1482 1484 1486 1488 1490 1493 1495 1497 1499 1501 1503 1505 1507 1509 1511 1513 1515 1517 1520 1522 1524 1526 1527 1529 1531 1533 1534 1536 1537 1538 1539
1463 1464 1465 1466 1467 1469 1470 1471 1472 1473 1475 1476 1478 1481 1483 1485 1487 1489 1492 1494 1496 1498 1500 1502 1504 1506 1509 1511 1513 1515 1517 1519 1521 1523 1525 1527 1529 1531 1532 1534 1535 1536 1537 1538